Regional Weather Roundup
Issued by NWS

Home | Current Version | Previous Version | Graphics & Text | Print | Product List | Glossary Off
Versions: 1 2 3 4 5 6 7 8 9 10 11 12 13 14 15 16 17 18 19 20 21 22 23 24 25 26 27 28 29 30 31 32 33 34 35 36 37 38 39 40 41 42 43 44 45 46 47 48 49 50

000
ASUS43 KMKX 291228
RWRWI

WISCONSIN REGIONAL WEATHER ROUNDUP
NATIONAL WEATHER SERVICE MILWAUKEE/SULLIVAN WI
700 AM CDT FRI MAY 29 2015

NOTE: "FAIR" INDICATES FEW OR NO CLOUDS BELOW 12,000 FEET WITH NO
SIGNIFICANT WEATHER AND/OR OBSTRUCTIONS TO VISIBILITY.

WIZ001-002-006>008-014>016-023>028-291300-
NORTHWEST WISCONSIN

CITY           SKY/WX    TMP DP  RH WIND       PRES   REMARKS
SUPERIOR ARPT  CLOUDY    44  42  93 CALM      29.87S
6HR MIN TEMP:  41; 6HR MAX TEMP:  44;

ASHLAND        LGT RAIN  61  59  93 S6        29.88S
6HR MIN TEMP:  44; 6HR MAX TEMP:  65; 6HR PCP:  0.04;

HAYWARD        RAIN      61  58  90 S5        29.89F FOG
6HR MIN TEMP:  61; 6HR MAX TEMP:  68; 6HR PCP:  0.07;

SIREN          CLOUDY    62  60  94 S7        29.88S
6HR MIN TEMP:  62; 6HR MAX TEMP:  67;

CUMBERLAND     LGT RAIN  59  57  94 S7        29.89S
RICE LAKE      LGT RAIN  62  59  90 SE9       29.90F
6HR MIN TEMP:  61; 6HR MAX TEMP:  67; 6HR PCP:  0.02;

CHETEK         CLOUDY    61  60  96 E6        29.90S
6HR MIN TEMP:  60; 6HR MAX TEMP:  65; 6HR PCP:  0.04;

LADYSMITH      CLOUDY    63  58  84 S5        29.93S
6HR MIN TEMP:  61; 6HR MAX TEMP:  65; 6HR PCP:  0.01;

EAU CLAIRE     CLOUDY    65  59  81 S8        29.90S
6HR MIN TEMP:  62; 6HR MAX TEMP:  67; 6HR PCP:  0.06;

MENOMONIE      CLOUDY    63  61  94 SE3       29.90S
6HR MIN TEMP:  62; 6HR MAX TEMP:  67; 6HR PCP:  0.06;

NEW RICHMOND   CLOUDY    61  61  99 S6        29.89R
6HR MIN TEMP:  61; 6HR MAX TEMP:  67; 6HR PCP:  0.75;

OSCEOLA        DRIZZLE   62  62 100 SE6       29.91S
6HR MIN TEMP:  62; 6HR MAX TEMP:  67; 6HR PCP:  0.28;

$$

WIZ003>005-009-010-017-018-291300-
NORTH CENTRAL WISCONSIN

CITY           SKY/WX    TMP DP  RH WIND       PRES   REMARKS
MANITOWISH WTR DRIZZLE   60  57  91 S6        29.94S
6HR MIN TEMP:  59; 6HR MAX TEMP:  63;

ARBOR VITAE    LGT RAIN  62  57  85 S6        29.95F
6HR MIN TEMP:  62; 6HR MAX TEMP:  64;

WOODRUFF       LGT RAIN  62  57  85 S6        29.95F
6HR MIN TEMP:  62; 6HR MAX TEMP:  64;

RHINELANDER    CLOUDY    62  56  80 S5        29.96F
6HR MIN TEMP:  60; 6HR MAX TEMP:  65; 6HR PCP: TRACE;

EAGLE RIVER    LGT RAIN  60  53  76 CALM      29.95F
6HR MIN TEMP:  60; 6HR MAX TEMP:  63;

LAND O LAKES   DRIZZLE   62  55  77 S3        29.96S
6HR MIN TEMP:  62; 6HR MAX TEMP:  64;

PHILLIPS       PTSUNNY   62  55  80 S7        29.92F
6HR MIN TEMP:  61; 6HR MAX TEMP:  65;

TOMAHAWK       CLOUDY    60  56  88 CALM      29.96S
6HR MIN TEMP:  56; 6HR MAX TEMP:  60;

MEDFORD        CLOUDY    60  58  93 S7        29.95S
6HR MIN TEMP:  59; 6HR MAX TEMP:  63;

MERRILL        CLOUDY    62  59  91 S3        29.96F
$$

WIZ029-030-035-036-043>047-291300-
CENTRAL WISCONSIN

CITY           SKY/WX    TMP DP  RH WIND       PRES   REMARKS
WAUSAU         CLOUDY    63  58  83 S7        29.95F
6HR MIN TEMP:  63; 6HR MAX TEMP:  65; 6HR PCP: TRACE;

MOSINEE        MOSUNNY   61  61 100 S5        29.98F
MARSHFIELD     CLOUDY    62  59  90 S9        29.95S
6HR MIN TEMP:  61; 6HR MAX TEMP:  67; 6HR PCP:  0.02;

STEVENS POINT  CLOUDY    60  58  93 CALM      29.97F
6HR MIN TEMP:  59; 6HR MAX TEMP:  66;

WAUPACA        LGT RAIN  64  63  96 SE3       29.98S
6HR MIN TEMP:  62; 6HR MAX TEMP:  67; 6HR PCP:  0.02;

WAUTOMA        LGT RAIN  62  62 100 CALM      29.99S
6HR MIN TEMP:  62; 6HR MAX TEMP:  68; 6HR PCP:  0.06;

WISC RAPIDS    CLOUDY    63  59  87 S7        29.97F
6HR MIN TEMP:  61; 6HR MAX TEMP:  67; 6HR PCP:  0.05;

CAMP DOUGLAS   PTSUNNY   63  63 100 SE5       29.95F
                                      6HR PCP:  0.05;

$$

WIZ011>013-019>022-031-037>040-048>050-291300-
NORTHEAST WISCONSIN

CITY           SKY/WX    TMP DP  RH WIND       PRES   REMARKS
ANTIGO         CLOUDY    59  56  90 S5        29.98S
SHAWANO        CLOUDY    64  58  81 CALM      29.98S
6HR MIN TEMP:  63; 6HR MAX TEMP:  66; 6HR PCP:  0.01;

OCONTO         CLOUDY    65  59  81 S6        29.97F
6HR MIN TEMP:  63; 6HR MAX TEMP:  66;

STURGEON BAY   CLOUDY    61  52  72 S13G21    30.02S
6HR MIN TEMP:  59; 6HR MAX TEMP:  63;

GREEN BAY      LGT RAIN  65  58  78 S5        29.99F
6HR MIN TEMP:  64; 6HR MAX TEMP:  68; 6HR PCP: TRACE;

MANITOWOC      PTSUNNY   59  54  83 S6        30.01S
6HR MIN TEMP:  57; 6HR MAX TEMP:  61;

APPLETON       DRIZZLE   64  57  77 SW5       29.99F
CLINTONVILLE   DRIZZLE   63  57  82 S3        29.98S
OSHKOSH        LGT RAIN  64  58  80 SE3       29.99S
6HR MIN TEMP:  64; 6HR MAX TEMP:  67; 6HR PCP: TRACE;

$$

WIZ032>034-041-042-053>061-291300-
SOUTHWEST WISCONSIN

CITY           SKY/WX    TMP DP  RH WIND       PRES   REMARKS
LA CROSSE      MOSUNNY   67  62  84 S8        29.92R
6HR MIN TEMP:  65; 6HR MAX TEMP:  70; 6HR PCP:  0.04;

SPARTA         MOSUNNY   61  60  96 CALM      29.95R
6HR MIN TEMP:  60; 6HR MAX TEMP:  63; 6HR PCP:  0.05;

VIROQUA        MOSUNNY   62  62 100 S9        29.96S
6HR MIN TEMP:  61; 6HR MAX TEMP:  67; 6HR PCP:  0.01;

BOSCOBEL       CLOUDY    65  62  90 CALM      29.96S
6HR MIN TEMP:  62; 6HR MAX TEMP:  65; 6HR PCP:  0.03;

PRAIRIE DU CHI CLOUDY    65  61  88 E3        29.95R
6HR MIN TEMP:  63; 6HR MAX TEMP:  67; 6HR PCP:  0.02;

PLATTEVILLE    CLOUDY    65  63  96 SE8       29.98S
6HR MIN TEMP:  62; 6HR MAX TEMP:  67; 6HR PCP:  0.17;

$$

WIZ056-057-062-063-064-067-068-291300-
SOUTH CENTRAL WISCONSIN

CITY           SKY/WX    TMP DP  RH WIND       PRES   REMARKS
REEDSBURG      CLOUDY    63  62  97 CALM      29.96F
6HR MIN TEMP:  60; 6HR MAX TEMP:  68; 6HR PCP:  0.14;

BARABOO/DELLS  CLOUDY    63  61  93 S7        29.96F
6HR MIN TEMP:  61; 6HR MAX TEMP:  67; 6HR PCP:  0.24;

LONE ROCK      CLOUDY    64  62  93 E5        29.98R
6HR MIN TEMP:  62; 6HR MAX TEMP:  67; 6HR PCP:  0.10;

MINERAL POINT  CLOUDY    64  63  94 SE9       29.99R
MADISON        TSTM      63  61  93 CALM      30.01S FOG
6HR MIN TEMP:  63; 6HR MAX TEMP:  69; 6HR PCP:  0.20;

MIDDLETON      CLOUDY    65  64  97 S3        30.01R VSB 1/2
6HR MIN TEMP:  63; 6HR MAX TEMP:  69; 6HR PCP:  0.58;

WATERTOWN      PTSUNNY  N/A N/A N/A CALM      30.00S
MONROE         CLOUDY    63  59  88 N3        30.01R
JANESVILLE     NOT AVBL
$$

WIZ051-052-058>065-066-070>072-291300-
SOUTHEAST WISCONSIN

CITY           SKY/WX    TMP DP  RH WIND       PRES   REMARKS
MILWAUKEE      PTSUNNY   65  56  72 S8        30.01S
6HR MIN TEMP:  59; 6HR MAX TEMP:  65;

WAUKESHA       MOSUNNY   64  55  72 S5        30.03R
MILWAUKEE/TIMM PTSUNNY   63  54  72 S3        30.02S
RACINE         MOSUNNY   66  57  72 CALM      30.04R
6HR MIN TEMP:  59; 6HR MAX TEMP:  66;

BURLINGTON     PTSUNNY   59  58  94 CALM      30.02S
6HR MIN TEMP:  55; 6HR MAX TEMP:  59;

KENOSHA        MOSUNNY   67  60  78 S6        30.02S
6HR MIN TEMP:  61; 6HR MAX TEMP:  67;

FOND DU LAC    CLOUDY    65  60  84 S3        30.00S
6HR MIN TEMP:  64; 6HR MAX TEMP:  67;

SHEBOYGAN      PTSUNNY   60  55  83 S3        30.01R
6HR MIN TEMP:  58; 6HR MAX TEMP:  60;

WEST BEND      PTSUNNY   63  55  77 CALM      30.01S
JUNEAU         CLOUDY    64  58  82 S5        30.03R
6HR MIN TEMP:  62; 6HR MAX TEMP:  65; 6HR PCP:  0.02;

$$

LSZ147-162-291300-
LAKE SUPERIOR

STATION/POSITION TIME  TEMP    WIND        PRES    WAVE
                       AIR SEA DIR/SP/G            HT/PER
                 (UTC) (F)     (DEG/KT/KT) (MB)    (FT/S)
W MID LAKE BUOY  1150   40 37  170/  4/  4   N/A     1
DEVILS ISLAND    1200   43     320/  6/  7   N/A
PORT WING        1140   41      10/  4/  9   N/A
SAXON HARBOR     1040   62     190/  2/  7   N/A
$$

LMZ867-665-643>646-291300-
LAKE MICHIGAN

STATION/POSITION TIME  TEMP    WIND        PRES    WAVE
                       AIR SEA DIR/SP/G            HT/PER
                 (UTC) (F)     (DEG/KT/KT) (MB)    (FT/S)
CHAMBERS ISLAND  1100   63     150/  7/ 16   N/A



USA.gov is the U.S. government's official web portal to all federal, state and local government web resources and services.